owner,sensor,date,latitude,longitude,vertical_datum,sea_water_temperature,qcFlag 
DISL,ioos:station:DISL:MBLA:1,2010-03-12T18:08:00Z,30.4367,-88.0117,0.5,12.71,2 
DISL,ioos:station:DISL:MBLA:1,2010-03-12T18:13:00Z,30.4367,-88.0117,0.5,12.62,2 
DISL,ioos:station:DISL:MBLA:1,2010-03-12T18:17:00Z,30.4367,-88.0117,0.5,12.79,2 
DISL,ioos:station:DISL:MBLA:1,2010-03-12T18:20:00Z,30.4367,-88.0117,0.5,12.69,2 
DISL,ioos:station:DISL:MBLA:1,2010-03-12T18:22:00Z,30.4367,-88.0117,0.5,12.69,2 
DISL,ioos:station:DISL:MBLA:1,2010-03-12T18:24:00Z,30.4367,-88.0117,0.5,12.65,2 
DISL,ioos:station:DISL:MBLA:1,2010-03-12T18:27:00Z,30.4367,-88.0117,0.5,12.75,2 
DISL,ioos:station:DISL:MBLA:1,2010-03-12T18:29:00Z,30.4367,-88.0117,0.5,13.08,2 
DISL,ioos:station:DISL:MBLA:1,2010-03-12T19:03:00Z,30.4367,-88.0117,0.5,12.78,2 
DISL,ioos:station:DISL:MBLA:1,2010-03-12T19:05:00Z,30.4367,-88.0117,0.5,12.6,2 
DISL,ioos:station:DISL:MBLA:1,2010-03-12T19:07:00Z,30.4367,-88.0117,0.5,12.61,2 
DISL,ioos:station:DISL:MBLA:1,2010-03-12T19:10:00Z,30.4367,-88.0117,0.5,12.57,2 
DISL,ioos:station:DISL:MBLA:1,2010-03-12T19:12:00Z,30.4367,-88.0117,0.5,12.58,2 
DISL,ioos:station:DISL:MBLA:1,2010-03-12T19:15:00Z,30.4367,-88.0117,0.5,12.67,2 
DISL,ioos:station:DISL:MBLA:1,2010-03-12T20:03:00Z,30.4367,-88.0117,0.5,12.87,2 
DISL,ioos:station:DISL:MBLA:1,2010-03-12T20:05:00Z,30.4367,-88.0117,0.5,12.68,2 
DISL,ioos:station:DISL:MBLA:1,2010-03-12T20:07:00Z,30.4367,-88.0117,0.5,12.65,2 
DISL,ioos:station:DISL:MBLA:1,2010-03-12T20:08:00Z,30.4367,-88.0117,0.5,13.8,2 
DISL,ioos:station:DISL:MBLA:1,2010-03-12T20:10:00Z,30.4367,-88.0117,0.5,12.67,2 
DISL,ioos:station:DISL:MBLA:1,2010-03-12T20:12:00Z,30.4367,-88.0117,0.5,13.28,2 
DISL,ioos:station:DISL:MBLA:1,2010-03-12T20:15:00Z,30.4367,-88.0117,0.5,13.51,2 
DISL,ioos:station:DISL:MBLA:1,2010-03-12T21:03:00Z,30.4367,-88.0117,0.5,13.16,2 
DISL,ioos:station:DISL:MBLA:1,2010-03-12T21:05:00Z,30.4367,-88.0117,0.5,12.94,2 
DISL,ioos:station:DISL:MBLA:1,2010-03-12T21:07:00Z,30.4367,-88.0117,0.5,12.64,2 
DISL,ioos:station:DISL:MBLA:1,2010-03-12T21:10:00Z,30.4367,-88.0117,0.5,12.63,2 
DISL,ioos:station:DISL:MBLA:1,2010-03-12T21:13:00Z,30.4367,-88.0117,0.5,13.07,2 
DISL,ioos:station:DISL:MBLA:1,2010-03-12T21:15:00Z,30.4367,-88.0117,0.5,13.35,2 
DISL,ioos:station:DISL:MBLA:1,2010-03-12T22:03:00Z,30.4367,-88.0117,0.5,12.88,2 
DISL,ioos:station:DISL:MBLA:1,2010-03-12T22:05:00Z,30.4367,-88.0117,0.5,12.5,2 
DISL,ioos:station:DISL:MBLA:1,2010-03-12T22:07:00Z,30.4367,-88.0117,0.5,12.51,2 
DISL,ioos:station:DISL:MBLA:1,2010-03-12T22:10:00Z,30.4367,-88.0117,0.5,12.72,2 
DISL,ioos:station:DISL:MBLA:1,2010-03-12T22:12:00Z,30.4367,-88.0117,0.5,13.22,2 
DISL,ioos:station:DISL:MBLA:1,2010-03-12T22:15:00Z,30.4367,-88.0117,0.5,13.58,2 
DISL,ioos:station:DISL:MBLA:1,2010-03-12T23:03:00Z,30.4367,-88.0117,0.5,12.87,2 
DISL,ioos:station:DISL:MBLA:1,2010-03-12T23:05:00Z,30.4367,-88.0117,0.5,12.62,2 
DISL,ioos:station:DISL:MBLA:1,2010-03-12T23:07:00Z,30.4367,-88.0117,0.5,12.45,2 
DISL,ioos:station:DISL:MBLA:1,2010-03-12T23:10:00Z,30.4367,-88.0117,0.5,12.55,2 
DISL,ioos:station:DISL:MBLA:1,2010-03-12T23:12:00Z,30.4367,-88.0117,0.5,12.53,2 
DISL,ioos:station:DISL:MBLA:1,2010-03-12T23:15:00Z,30.4367,-88.0117,0.5,12.85,2 
DISL,ioos:station:DISL:MBLA:1,2010-03-20T00:03:00Z,30.4367,-88.0117,0.5,12.71,2 
DISL,ioos:station:DISL:MBLA:1,2010-03-20T00:05:00Z,30.4367,-88.0117,0.5,12.72,2 
DISL,ioos:station:DISL:MBLA:1,2010-03-20T00:07:00Z,30.4367,-88.0117,0.5,12.88,2 
DISL,ioos:station:DISL:MBLA:1,2010-03-20T00:10:00Z,30.4367,-88.0117,0.5,12.9,2 
DISL,ioos:station:DISL:MBLA:1,2010-03-20T00:12:00Z,30.4367,-88.0117,0.5,12.96,2 
DISL,ioos:station:DISL:MBLA:1,2010-03-20T00:15:00Z,30.4367,-88.0117,0.5,12.99,2 
DISL,ioos:station:DISL:MBLA:1,2010-03-20T01:03:00Z,30.4367,-88.0117,0.5,12.92,2 
DISL,ioos:station:DISL:MBLA:1,2010-03-20T01:05:00Z,30.4367,-88.0117,0.5,12.57,2 
DISL,ioos:station:DISL:MBLA:1,2010-03-20T01:07:00Z,30.4367,-88.0117,0.5,12.9,2 
DISL,ioos:station:DISL:MBLA:1,2010-03-20T01:10:00Z,30.4367,-88.0117,0.5,12.59,2 
DISL,ioos:station:DISL:MBLA:1,2010-03-20T01:12:00Z,30.4367,-88.0117,0.5,12.58,2 
DISL,ioos:station:DISL:MBLA:1,2010-03-20T01:15:00Z,30.4367,-88.0117,0.5,12.59,2 
DISL,ioos:station:DISL:MBLA:1,2010-03-20T02:03:00Z,30.4367,-88.0117,0.5,12.87,2 
DISL,ioos:station:DISL:MBLA:1,2010-03-20T02:05:00Z,30.4367,-88.0117,0.5,12.66,2 
DISL,ioos:station:DISL:MBLA:1,2010-03-20T02:07:00Z,30.4367,-88.0117,0.5,12.54,2 
DISL,ioos:station:DISL:MBLA:1,2010-03-20T02:10:00Z,30.4367,-88.0117,0.5,12.55,2 
DISL,ioos:station:DISL:MBLA:1,2010-03-20T02:12:00Z,30.4367,-88.0117,0.5,12.59,2 
DISL,ioos:station:DISL:MBLA:1,2010-03-20T02:15:00Z,30.4367,-88.0117,0.5,12.6,2 
DISL,ioos:station:DISL:MBLA:1,2010-03-20T03:03:00Z,30.4367,-88.0117,0.5,13.04,2 
DISL,ioos:station:DISL:MBLA:1,2010-03-20T03:05:00Z,30.4367,-88.0117,0.5,12.74,2 
DISL,ioos:station:DISL:MBLA:1,2010-03-20T03:07:00Z,30.4367,-88.0117,0.5,12.69,2 
DISL,ioos:station:DISL:MBLA:1,2010-03-20T03:10:00Z,30.4367,-88.0117,0.5,12.65,2 
DISL,ioos:station:DISL:MBLA:1,2010-03-20T03:12:00Z,30.4367,-88.0117,0.5,12.67,2 
DISL,ioos:station:DISL:MBLA:1,2010-03-20T03:15:00Z,30.4367,-88.0117,0.5,12.69,2 
DISL,ioos:station:DISL:MBLA:1,2010-03-20T04:03:00Z,30.4367,-88.0117,0.5,12.75,2 
DISL,ioos:station:DISL:MBLA:1,2010-03-20T04:05:00Z,30.4367,-88.0117,0.5,12.6,2 
DISL,ioos:station:DISL:MBLA:1,2010-03-20T04:07:00Z,30.4367,-88.0117,0.5,12.63,2 
DISL,ioos:station:DISL:MBLA:1,2010-03-20T04:10:00Z,30.4367,-88.0117,0.5,12.69,2 
DISL,ioos:station:DISL:MBLA:1,2010-03-20T04:12:00Z,30.4367,-88.0117,0.5,12.74,2 
DISL,ioos:station:DISL:MBLA:1,2010-03-20T04:15:00Z,30.4367,-88.0117,0.5,12.74,2 
DISL,ioos:station:DISL:MBLA:1,2010-03-20T05:03:00Z,30.4367,-88.0117,0.5,12.86,2 
DISL,ioos:station:DISL:MBLA:1,2010-03-20T05:05:00Z,30.4367,-88.0117,0.5,12.68,2 
DISL,ioos:station:DISL:MBLA:1,2010-03-20T05:07:00Z,30.4367,-88.0117,0.5,12.57,2 
DISL,ioos:station:DISL:MBLA:1,2010-03-20T05:10:00Z,30.4367,-88.0117,0.5,12.54,2 
DISL,ioos:station:DISL:MBLA:1,2010-03-20T05:12:00Z,30.4367,-88.0117,0.5,12.47,2 
DISL,ioos:station:DISL:MBLA:1,2010-03-20T05:15:00Z,30.4367,-88.0117,0.5,12.3,2 
DISL,ioos:station:DISL:MBLA:1,2010-03-20T06:03:00Z,30.4367,-88.0117,0.5,13.13,2 
DISL,ioos:station:DISL:MBLA:1,2010-03-20T06:05:00Z,30.4367,-88.0117,0.5,12.71,2 
DISL,ioos:station:DISL:MBLA:1,2010-03-20T06:07:00Z,30.4367,-88.0117,0.5,12.41,2 
DISL,ioos:station:DISL:MBLA:1,2010-03-20T06:10:00Z,30.4367,-88.0117,0.5,12.34,2 
DISL,ioos:station:DISL:MBLA:1,2010-03-20T06:12:00Z,30.4367,-88.0117,0.5,12.2,2 
DISL,ioos:station:DISL:MBLA:1,2010-03-20T06:15:00Z,30.4367,-88.0117,0.5,12.09,2 
DISL,ioos:station:DISL:MBLA:1,2010-03-20T07:02:00Z,30.4367,-88.0117,0.5,13.2,2 
DISL,ioos:station:DISL:MBLA:1,2010-03-20T07:05:00Z,30.4367,-88.0117,0.5,12.89,2 
DISL,ioos:station:DISL:MBLA:1,2010-03-20T07:07:00Z,30.4367,-88.0117,0.5,12.79,2 
DISL,ioos:station:DISL:MBLA:1,2010-03-20T07:10:00Z,30.4367,-88.0117,0.5,12.7,2 
DISL,ioos:station:DISL:MBLA:1,2010-03-20T07:12:00Z,30.4367,-88.0117,0.5,12.49,2 
DISL,ioos:station:DISL:MBLA:1,2010-03-20T07:15:00Z,30.4367,-88.0117,0.5,12.35,2 
DISL,ioos:station:DISL:MBLA:1,2010-03-20T08:03:00Z,30.4367,-88.0117,0.5,13.07,2 
DISL,ioos:station:DISL:MBLA:1,2010-03-20T08:05:00Z,30.4367,-88.0117,0.5,12.85,2 
DISL,ioos:station:DISL:MBLA:1,2010-03-20T08:07:00Z,30.4367,-88.0117,0.5,12.76,2 
DISL,ioos:station:DISL:MBLA:1,2010-03-20T08:10:00Z,30.4367,-88.0117,0.5,12.66,2 
DISL,ioos:station:DISL:MBLA:1,2010-03-20T08:12:00Z,30.4367,-88.0117,0.5,12.53,2 
DISL,ioos:station:DISL:MBLA:1,2010-03-20T08:15:00Z,30.4367,-88.0117,0.5,12.24,2 
DISL,ioos:station:DISL:MBLA:1,2010-03-20T09:02:00Z,30.4367,-88.0117,0.5,13.0,2 
DISL,ioos:station:DISL:MBLA:1,2010-03-20T09:05:00Z,30.4367,-88.0117,0.5,12.92,2 
DISL,ioos:station:DISL:MBLA:1,2010-03-20T09:07:00Z,30.4367,-88.0117,0.5,12.81,2 
DISL,ioos:station:DISL:MBLA:1,2010-03-20T09:10:00Z,30.4367,-88.0117,0.5,12.73,2 
DISL,ioos:station:DISL:MBLA:1,2010-03-20T09:12:00Z,30.4367,-88.0117,0.5,12.61,2 
DISL,ioos:station:DISL:MBLA:1,2010-03-20T09:15:00Z,30.4367,-88.0117,0.5,12.26,2 
DISL,ioos:station:DISL:MBLA:1,2010-03-20T10:02:00Z,30.4367,-88.0117,0.5,13.06,2 
DISL,ioos:station:DISL:MBLA:1,2010-03-20T10:05:00Z,30.4367,-88.0117,0.5,13.0,2 
DISL,ioos:station:DISL:MBLA:1,2010-03-20T10:07:00Z,30.4367,-88.0117,0.5,12.84,2 
DISL,ioos:station:DISL:MBLA:1,2010-03-20T10:10:00Z,30.4367,-88.0117,0.5,12.77,2 
DISL,ioos:station:DISL:MBLA:1,2010-03-20T10:12:00Z,30.4367,-88.0117,0.5,12.69,2 
DISL,ioos:station:DISL:MBLA:1,2010-03-20T10:15:00Z,30.4367,-88.0117,0.5,12.59,2 
DISL,ioos:station:DISL:MBLA:1,2010-03-20T11:02:00Z,30.4367,-88.0117,0.5,12.91,2 
DISL,ioos:station:DISL:MBLA:1,2010-03-20T11:05:00Z,30.4367,-88.0117,0.5,12.77,2 
DISL,ioos:station:DISL:MBLA:1,2010-03-20T11:07:00Z,30.4367,-88.0117,0.5,12.72,2 
DISL,ioos:station:DISL:MBLA:1,2010-03-20T11:10:00Z,30.4367,-88.0117,0.5,12.72,2 
DISL,ioos:station:DISL:MBLA:1,2010-03-20T11:12:00Z,30.4367,-88.0117,0.5,12.7,2 
DISL,ioos:station:DISL:MBLA:1,2010-03-20T11:15:00Z,30.4367,-88.0117,0.5,12.69,2 
DISL,ioos:station:DISL:MBLA:1,2010-03-20T12:02:00Z,30.4367,-88.0117,0.5,12.92,2 
DISL,ioos:station:DISL:MBLA:1,2010-03-20T12:05:00Z,30.4367,-88.0117,0.5,12.82,2 
DISL,ioos:station:DISL:MBLA:1,2010-03-20T12:07:00Z,30.4367,-88.0117,0.5,12.82,2 
DISL,ioos:station:DISL:MBLA:1,2010-03-20T12:10:00Z,30.4367,-88.0117,0.5,12.8,2 
DISL,ioos:station:DISL:MBLA:1,2010-03-20T12:12:00Z,30.4367,-88.0117,0.5,12.72,2 
DISL,ioos:station:DISL:MBLA:1,2010-03-20T12:15:00Z,30.4367,-88.0117,0.5,12.7,2 
DISL,ioos:station:DISL:MBLA:1,2010-03-20T13:02:00Z,30.4367,-88.0117,0.5,12.89,2 
DISL,ioos:station:DISL:MBLA:1,2010-03-20T13:05:00Z,30.4367,-88.0117,0.5,12.91,2 
DISL,ioos:station:DISL:MBLA:1,2010-03-20T13:07:00Z,30.4367,-88.0117,0.5,12.81,2 
DISL,ioos:station:DISL:MBLA:1,2010-03-20T13:10:00Z,30.4367,-88.0117,0.5,12.83,2 
DISL,ioos:station:DISL:MBLA:1,2010-03-20T13:12:00Z,30.4367,-88.0117,0.5,12.59,2 
DISL,ioos:station:DISL:MBLA:1,2010-03-20T13:15:00Z,30.4367,-88.0117,0.5,12.49,2 
DISL,ioos:station:DISL:MBLA:1,2010-03-20T14:03:00Z,30.4367,-88.0117,0.5,13.16,2 
DISL,ioos:station:DISL:MBLA:1,2010-03-20T14:05:00Z,30.4367,-88.0117,0.5,13.28,2 
DISL,ioos:station:DISL:MBLA:1,2010-03-20T14:07:00Z,30.4367,-88.0117,0.5,13.57,2 
DISL,ioos:station:DISL:MBLA:1,2010-03-20T14:10:00Z,30.4367,-88.0117,0.5,13.36,2 
DISL,ioos:station:DISL:MBLA:1,2010-03-20T14:12:00Z,30.4367,-88.0117,0.5,12.93,2 
DISL,ioos:station:DISL:MBLA:1,2010-03-20T14:15:00Z,30.4367,-88.0117,0.5,12.92,2 
DISL,ioos:station:DISL:MBLA:1,2010-03-20T15:03:00Z,30.4367,-88.0117,0.5,13.32,2 
DISL,ioos:station:DISL:MBLA:1,2010-03-20T15:05:00Z,30.4367,-88.0117,0.5,13.45,2 
DISL,ioos:station:DISL:MBLA:1,2010-03-20T15:07:00Z,30.4367,-88.0117,0.5,13.4,2 
DISL,ioos:station:DISL:MBLA:1,2010-03-20T15:10:00Z,30.4367,-88.0117,0.5,13.26,2 
DISL,ioos:station:DISL:MBLA:1,2010-03-20T15:12:00Z,30.4367,-88.0117,0.5,13.17,2 
DISL,ioos:station:DISL:MBLA:1,2010-03-20T15:15:00Z,30.4367,-88.0117,0.5,13.26,2 
DISL,ioos:station:DISL:MBLA:1,2010-03-20T16:03:00Z,30.4367,-88.0117,0.5,13.14,2 
DISL,ioos:station:DISL:MBLA:1,2010-03-20T16:05:00Z,30.4367,-88.0117,0.5,13.26,2 
DISL,ioos:station:DISL:MBLA:1,2010-03-20T16:07:00Z,30.4367,-88.0117,0.5,13.22,2 
DISL,ioos:station:DISL:MBLA:1,2010-03-20T16:10:00Z,30.4367,-88.0117,0.5,13.22,2 
DISL,ioos:station:DISL:MBLA:1,2010-03-20T16:13:00Z,30.4367,-88.0117,0.5,13.27,2 
DISL,ioos:station:DISL:MBLA:1,2010-03-20T16:15:00Z,30.4367,-88.0117,0.5,13.44,2 
DISL,ioos:station:DISL:MBLA:1,2010-03-20T17:03:00Z,30.4367,-88.0117,0.5,13.37,2 
DISL,ioos:station:DISL:MBLA:1,2010-03-20T17:05:00Z,30.4367,-88.0117,0.5,13.34,2 
DISL,ioos:station:DISL:MBLA:1,2010-03-20T17:07:00Z,30.4367,-88.0117,0.5,13.39,2 
DISL,ioos:station:DISL:MBLA:1,2010-03-20T17:10:00Z,30.4367,-88.0117,0.5,13.43,2 
DISL,ioos:station:DISL:MBLA:1,2010-03-20T17:13:00Z,30.4367,-88.0117,0.5,13.52,2 
DISL,ioos:station:DISL:MBLA:1,2010-03-20T17:15:00Z,30.4367,-88.0117,0.5,13.57,2 
DISL,ioos:station:DISL:MBLA:1,2010-03-20T18:02:00Z,30.4367,-88.0117,0.5,13.39,2 
DISL,ioos:station:DISL:MBLA:1,2010-03-20T18:05:00Z,30.4367,-88.0117,0.5,13.43,2 
DISL,ioos:station:DISL:MBLA:1,2010-03-20T18:07:00Z,30.4367,-88.0117,0.5,13.62,2 
DISL,ioos:station:DISL:MBLA:1,2010-03-20T18:10:00Z,30.4367,-88.0117,0.5,13.68,2 
DISL,ioos:station:DISL:MBLA:1,2010-03-20T18:12:00Z,30.4367,-88.0117,0.5,13.76,2 
DISL,ioos:station:DISL:MBLA:1,2010-03-20T18:15:00Z,30.4367,-88.0117,0.5,13.72,2 
DISL,ioos:station:DISL:MBLA:1,2010-03-20T19:03:00Z,30.4367,-88.0117,0.5,13.51,2 
DISL,ioos:station:DISL:MBLA:1,2010-03-20T19:05:00Z,30.4367,-88.0117,0.5,13.72,2 
DISL,ioos:station:DISL:MBLA:1,2010-03-20T19:07:00Z,30.4367,-88.0117,0.5,13.82,2 
DISL,ioos:station:DISL:MBLA:1,2010-03-20T19:10:00Z,30.4367,-88.0117,0.5,13.84,2 
DISL,ioos:station:DISL:MBLA:1,2010-03-20T19:13:00Z,30.4367,-88.0117,0.5,13.85,2 
DISL,ioos:station:DISL:MBLA:1,2010-03-20T19:16:00Z,30.4367,-88.0117,0.5,13.88,2 
DISL,ioos:station:DISL:MBLA:1,2010-03-20T20:03:00Z,30.4367,-88.0117,0.5,13.84,2 
DISL,ioos:station:DISL:MBLA:1,2010-03-20T20:05:00Z,30.4367,-88.0117,0.5,13.89,2 
DISL,ioos:station:DISL:MBLA:1,2010-03-20T20:08:00Z,30.4367,-88.0117,0.5,13.87,2 
DISL,ioos:station:DISL:MBLA:1,2010-03-20T20:10:00Z,30.4367,-88.0117,0.5,13.91,2 
DISL,ioos:station:DISL:MBLA:1,2010-03-20T20:12:00Z,30.4367,-88.0117,0.5,13.97,2 
DISL,ioos:station:DISL:MBLA:1,2010-03-20T20:15:00Z,30.4367,-88.0117,0.5,13.96,2 
DISL,ioos:station:DISL:MBLA:1,2010-03-20T21:03:00Z,30.4367,-88.0117,0.5,13.79,2 
DISL,ioos:station:DISL:MBLA:1,2010-03-20T21:05:00Z,30.4367,-88.0117,0.5,13.89,2 
DISL,ioos:station:DISL:MBLA:1,2010-03-20T21:07:00Z,30.4367,-88.0117,0.5,13.89,2 
DISL,ioos:station:DISL:MBLA:1,2010-03-20T21:10:00Z,30.4367,-88.0117,0.5,13.79,2 
DISL,ioos:station:DISL:MBLA:1,2010-03-20T21:13:00Z,30.4367,-88.0117,0.5,13.74,2 
DISL,ioos:station:DISL:MBLA:1,2010-03-20T21:15:00Z,30.4367,-88.0117,0.5,13.72,2 
DISL,ioos:station:DISL:MBLA:1,2010-03-20T22:03:00Z,30.4367,-88.0117,0.5,13.86,2 
DISL,ioos:station:DISL:MBLA:1,2010-03-20T22:05:00Z,30.4367,-88.0117,0.5,13.94,2 
DISL,ioos:station:DISL:MBLA:1,2010-03-20T22:07:00Z,30.4367,-88.0117,0.5,14.0,2 
DISL,ioos:station:DISL:MBLA:1,2010-03-20T22:10:00Z,30.4367,-88.0117,0.5,14.03,2 
DISL,ioos:station:DISL:MBLA:1,2010-03-20T22:13:00Z,30.4367,-88.0117,0.5,14.02,2 
DISL,ioos:station:DISL:MBLA:1,2010-03-20T22:15:00Z,30.4367,-88.0117,0.5,14.04,2 
DISL,ioos:station:DISL:MBLA:1,2010-03-20T23:03:00Z,30.4367,-88.0117,0.5,13.93,2 
DISL,ioos:station:DISL:MBLA:1,2010-03-20T23:05:00Z,30.4367,-88.0117,0.5,14.06,2 
DISL,ioos:station:DISL:MBLA:1,2010-03-20T23:07:00Z,30.4367,-88.0117,0.5,14.11,2 
DISL,ioos:station:DISL:MBLA:1,2010-03-20T23:10:00Z,30.4367,-88.0117,0.5,14.06,2 
DISL,ioos:station:DISL:MBLA:1,2010-03-20T23:12:00Z,30.4367,-88.0117,0.5,14.03,2 
DISL,ioos:station:DISL:MBLA:1,2010-03-20T23:15:00Z,30.4367,-88.0117,0.5,14.16,2 
DISL,ioos:station:DISL:MBLA:1,2010-03-21T00:03:00Z,30.4367,-88.0117,0.5,13.84,2 
DISL,ioos:station:DISL:MBLA:1,2010-03-21T00:06:00Z,30.4367,-88.0117,0.5,14.05,2 
DISL,ioos:station:DISL:MBLA:1,2010-03-21T00:08:00Z,30.4367,-88.0117,0.5,14.07,2 
DISL,ioos:station:DISL:MBLA:1,2010-03-21T00:11:00Z,30.4367,-88.0117,0.5,13.98,2 
DISL,ioos:station:DISL:MBLA:1,2010-03-21T00:13:00Z,30.4367,-88.0117,0.5,14.05,2 
DISL,ioos:station:DISL:MBLA:1,2010-03-21T00:15:00Z,30.4367,-88.0117,0.5,14.02,2 
DISL,ioos:station:DISL:MBLA:1,2010-03-21T01:03:00Z,30.4367,-88.0117,0.5,13.96,2 
DISL,ioos:station:DISL:MBLA:1,2010-03-21T01:05:00Z,30.4367,-88.0117,0.5,14.1,2 
DISL,ioos:station:DISL:MBLA:1,2010-03-21T01:08:00Z,30.4367,-88.0117,0.5,14.15,2 
DISL,ioos:station:DISL:MBLA:1,2010-03-21T01:10:00Z,30.4367,-88.0117,0.5,14.21,2 
DISL,ioos:station:DISL:MBLA:1,2010-03-21T01:13:00Z,30.4367,-88.0117,0.5,14.19,2 
DISL,ioos:station:DISL:MBLA:1,2010-03-21T01:16:00Z,30.4367,-88.0117,0.5,14.19,2 
DISL,ioos:station:DISL:MBLA:1,2010-03-21T02:03:00Z,30.4367,-88.0117,0.5,14.18,2 
DISL,ioos:station:DISL:MBLA:1,2010-03-21T02:05:00Z,30.4367,-88.0117,0.5,14.21,2 
DISL,ioos:station:DISL:MBLA:1,2010-03-21T02:07:00Z,30.4367,-88.0117,0.5,14.22,2 
DISL,ioos:station:DISL:MBLA:1,2010-03-21T02:10:00Z,30.4367,-88.0117,0.5,14.23,2 
DISL,ioos:station:DISL:MBLA:1,2010-03-21T02:12:00Z,30.4367,-88.0117,0.5,14.22,2 
DISL,ioos:station:DISL:MBLA:1,2010-03-21T02:15:00Z,30.4367,-88.0117,0.5,14.21,2 
DISL,ioos:station:DISL:MBLA:1,2010-03-21T03:03:00Z,30.4367,-88.0117,0.5,14.35,2 
DISL,ioos:station:DISL:MBLA:1,2010-03-21T03:05:00Z,30.4367,-88.0117,0.5,14.31,2 
DISL,ioos:station:DISL:MBLA:1,2010-03-21T03:08:00Z,30.4367,-88.0117,0.5,14.22,2 
DISL,ioos:station:DISL:MBLA:1,2010-03-21T03:11:00Z,30.4367,-88.0117,0.5,14.05,2 
DISL,ioos:station:DISL:MBLA:1,2010-03-21T03:14:00Z,30.4367,-88.0117,0.5,13.8,2 
DISL,ioos:station:DISL:MBLA:1,2010-03-21T03:17:00Z,30.4367,-88.0117,0.5,13.77,2 
DISL,ioos:station:DISL:MBLA:1,2010-03-21T04:03:00Z,30.4367,-88.0117,0.5,13.24,2 
DISL,ioos:station:DISL:MBLA:1,2010-03-21T04:05:00Z,30.4367,-88.0117,0.5,13.11,2 
DISL,ioos:station:DISL:MBLA:1,2010-03-21T04:07:00Z,30.4367,-88.0117,0.5,13.06,2 
DISL,ioos:station:DISL:MBLA:1,2010-03-21T04:10:00Z,30.4367,-88.0117,0.5,13.02,2 
DISL,ioos:station:DISL:MBLA:1,2010-03-21T04:13:00Z,30.4367,-88.0117,0.5,12.97,2 
DISL,ioos:station:DISL:MBLA:1,2010-03-21T04:16:00Z,30.4367,-88.0117,0.5,12.92,2 
DISL,ioos:station:DISL:MBLA:1,2010-03-21T05:02:00Z,30.4367,-88.0117,0.5,12.82,2 
DISL,ioos:station:DISL:MBLA:1,2010-03-21T05:05:00Z,30.4367,-88.0117,0.5,12.78,2 
DISL,ioos:station:DISL:MBLA:1,2010-03-21T05:07:00Z,30.4367,-88.0117,0.5,12.75,2 
DISL,ioos:station:DISL:MBLA:1,2010-03-21T05:10:00Z,30.4367,-88.0117,0.5,12.74,2 
DISL,ioos:station:DISL:MBLA:1,2010-03-21T05:12:00Z,30.4367,-88.0117,0.5,12.73,2 
DISL,ioos:station:DISL:MBLA:1,2010-03-21T05:15:00Z,30.4367,-88.0117,0.5,12.73,2 
DISL,ioos:station:DISL:MBLA:1,2010-03-21T06:03:00Z,30.4367,-88.0117,0.5,12.76,2 
DISL,ioos:station:DISL:MBLA:1,2010-03-21T06:05:00Z,30.4367,-88.0117,0.5,12.75,2 
DISL,ioos:station:DISL:MBLA:1,2010-03-21T06:08:00Z,30.4367,-88.0117,0.5,12.75,2 
DISL,ioos:station:DISL:MBLA:1,2010-03-21T06:10:00Z,30.4367,-88.0117,0.5,12.74,2 
DISL,ioos:station:DISL:MBLA:1,2010-03-21T06:13:00Z,30.4367,-88.0117,0.5,12.74,2 
DISL,ioos:station:DISL:MBLA:1,2010-03-21T06:15:00Z,30.4367,-88.0117,0.5,12.74,2 
DISL,ioos:station:DISL:MBLA:1,2010-03-21T07:03:00Z,30.4367,-88.0117,0.5,12.78,2 
DISL,ioos:station:DISL:MBLA:1,2010-03-21T07:05:00Z,30.4367,-88.0117,0.5,12.73,2 
DISL,ioos:station:DISL:MBLA:1,2010-03-21T07:07:00Z,30.4367,-88.0117,0.5,12.73,2 
DISL,ioos:station:DISL:MBLA:1,2010-03-21T07:10:00Z,30.4367,-88.0117,0.5,12.73,2 
DISL,ioos:station:DISL:MBLA:1,2010-03-21T07:13:00Z,30.4367,-88.0117,0.5,12.73,2 
DISL,ioos:station:DISL:MBLA:1,2010-03-21T07:15:00Z,30.4367,-88.0117,0.5,12.73,2 
DISL,ioos:station:DISL:MBLA:1,2010-03-21T08:03:00Z,30.4367,-88.0117,0.5,12.78,2 
DISL,ioos:station:DISL:MBLA:1,2010-03-21T08:05:00Z,30.4367,-88.0117,0.5,12.74,2 
DISL,ioos:station:DISL:MBLA:1,2010-03-21T08:08:00Z,30.4367,-88.0117,0.5,12.72,2 
DISL,ioos:station:DISL:MBLA:1,2010-03-21T08:10:00Z,30.4367,-88.0117,0.5,12.73,2 
DISL,ioos:station:DISL:MBLA:1,2010-03-21T08:13:00Z,30.4367,-88.0117,0.5,12.72,2 
DISL,ioos:station:DISL:MBLA:1,2010-03-21T08:15:00Z,30.4367,-88.0117,0.5,12.73,2 
DISL,ioos:station:DISL:MBLA:1,2010-03-21T09:02:00Z,30.4367,-88.0117,0.5,12.97,2 
DISL,ioos:station:DISL:MBLA:1,2010-03-21T09:05:00Z,30.4367,-88.0117,0.5,12.91,2 
DISL,ioos:station:DISL:MBLA:1,2010-03-21T09:07:00Z,30.4367,-88.0117,0.5,12.93,2 
DISL,ioos:station:DISL:MBLA:1,2010-03-21T09:10:00Z,30.4367,-88.0117,0.5,12.91,2 
DISL,ioos:station:DISL:MBLA:1,2010-03-21T09:13:00Z,30.4367,-88.0117,0.5,12.92,2 
DISL,ioos:station:DISL:MBLA:1,2010-03-21T09:15:00Z,30.4367,-88.0117,0.5,12.92,2 
DISL,ioos:station:DISL:MBLA:1,2010-03-21T10:02:00Z,30.4367,-88.0117,0.5,12.85,2 
DISL,ioos:station:DISL:MBLA:1,2010-03-21T10:05:00Z,30.4367,-88.0117,0.5,12.81,2 
DISL,ioos:station:DISL:MBLA:1,2010-03-21T10:08:00Z,30.4367,-88.0117,0.5,12.81,2 
DISL,ioos:station:DISL:MBLA:1,2010-03-21T10:10:00Z,30.4367,-88.0117,0.5,12.79,2 
DISL,ioos:station:DISL:MBLA:1,2010-03-21T10:13:00Z,30.4367,-88.0117,0.5,12.8,2 
DISL,ioos:station:DISL:MBLA:1,2010-03-21T10:15:00Z,30.4367,-88.0117,0.5,12.79,2 
DISL,ioos:station:DISL:MBLA:1,2010-03-21T11:02:00Z,30.4367,-88.0117,0.5,12.95,2 
DISL,ioos:station:DISL:MBLA:1,2010-03-21T11:05:00Z,30.4367,-88.0117,0.5,12.86,2 
DISL,ioos:station:DISL:MBLA:1,2010-03-21T11:07:00Z,30.4367,-88.0117,0.5,12.78,2 
DISL,ioos:station:DISL:MBLA:1,2010-03-21T11:10:00Z,30.4367,-88.0117,0.5,12.77,2 
DISL,ioos:station:DISL:MBLA:1,2010-03-21T11:12:00Z,30.4367,-88.0117,0.5,12.77,2 
DISL,ioos:station:DISL:MBLA:1,2010-03-21T11:15:00Z,30.4367,-88.0117,0.5,12.76,2 
DISL,ioos:station:DISL:MBLA:1,2010-03-21T12:02:00Z,30.4367,-88.0117,0.5,12.89,2 
DISL,ioos:station:DISL:MBLA:1,2010-03-21T12:05:00Z,30.4367,-88.0117,0.5,12.9,2 
DISL,ioos:station:DISL:MBLA:1,2010-03-21T12:07:00Z,30.4367,-88.0117,0.5,12.86,2 
DISL,ioos:station:DISL:MBLA:1,2010-03-21T12:10:00Z,30.4367,-88.0117,0.5,12.84,2 
DISL,ioos:station:DISL:MBLA:1,2010-03-21T12:12:00Z,30.4367,-88.0117,0.5,12.82,2 
DISL,ioos:station:DISL:MBLA:1,2010-03-21T12:15:00Z,30.4367,-88.0117,0.5,12.82,2 
DISL,ioos:station:DISL:MBLA:1,2010-03-21T13:03:00Z,30.4367,-88.0117,0.5,12.89,2 
DISL,ioos:station:DISL:MBLA:1,2010-03-21T13:05:00Z,30.4367,-88.0117,0.5,12.88,2 
DISL,ioos:station:DISL:MBLA:1,2010-03-21T13:08:00Z,30.4367,-88.0117,0.5,12.89,2 
DISL,ioos:station:DISL:MBLA:1,2010-03-21T13:10:00Z,30.4367,-88.0117,0.5,12.88,2 
DISL,ioos:station:DISL:MBLA:1,2010-03-21T13:13:00Z,30.4367,-88.0117,0.5,12.88,2 
DISL,ioos:station:DISL:MBLA:1,2010-03-21T13:15:00Z,30.4367,-88.0117,0.5,12.89,2 
DISL,ioos:station:DISL:MBLA:1,2010-03-21T14:03:00Z,30.4367,-88.0117,0.5,12.9,2 
DISL,ioos:station:DISL:MBLA:1,2010-03-21T14:05:00Z,30.4367,-88.0117,0.5,12.9,2 
DISL,ioos:station:DISL:MBLA:1,2010-03-21T14:07:00Z,30.4367,-88.0117,0.5,12.89,2 
DISL,ioos:station:DISL:MBLA:1,2010-03-21T14:10:00Z,30.4367,-88.0117,0.5,12.89,2 
DISL,ioos:station:DISL:MBLA:1,2010-03-21T14:12:00Z,30.4367,-88.0117,0.5,12.9,2 
DISL,ioos:station:DISL:MBLA:1,2010-03-21T14:15:00Z,30.4367,-88.0117,0.5,12.9,2 
DISL,ioos:station:DISL:MBLA:1,2010-03-21T15:03:00Z,30.4367,-88.0117,0.5,12.92,2 
DISL,ioos:station:DISL:MBLA:1,2010-03-21T15:05:00Z,30.4367,-88.0117,0.5,12.92,2 
DISL,ioos:station:DISL:MBLA:1,2010-03-21T15:08:00Z,30.4367,-88.0117,0.5,12.92,2 
DISL,ioos:station:DISL:MBLA:1,2010-03-21T15:10:00Z,30.4367,-88.0117,0.5,12.91,2 
DISL,ioos:station:DISL:MBLA:1,2010-03-21T15:13:00Z,30.4367,-88.0117,0.5,12.9,2 
DISL,ioos:station:DISL:MBLA:1,2010-03-21T15:16:00Z,30.4367,-88.0117,0.5,12.89,2 
DISL,ioos:station:DISL:MBLA:1,2010-03-21T16:03:00Z,30.4367,-88.0117,0.5,12.83,2 
DISL,ioos:station:DISL:MBLA:1,2010-03-21T16:05:00Z,30.4367,-88.0117,0.5,12.84,2 
DISL,ioos:station:DISL:MBLA:1,2010-03-21T16:07:00Z,30.4367,-88.0117,0.5,12.83,2 
DISL,ioos:station:DISL:MBLA:1,2010-03-21T16:10:00Z,30.4367,-88.0117,0.5,12.84,2 
DISL,ioos:station:DISL:MBLA:1,2010-03-21T16:13:00Z,30.4367,-88.0117,0.5,12.84,2 
DISL,ioos:station:DISL:MBLA:1,2010-03-21T16:16:00Z,30.4367,-88.0117,0.5,12.84,2 
DISL,ioos:station:DISL:MBLA:1,2010-03-21T17:03:00Z,30.4367,-88.0117,0.5,12.81,2 
DISL,ioos:station:DISL:MBLA:1,2010-03-21T17:05:00Z,30.4367,-88.0117,0.5,12.81,2 
DISL,ioos:station:DISL:MBLA:1,2010-03-21T17:08:00Z,30.4367,-88.0117,0.5,12.81,2 
DISL,ioos:station:DISL:MBLA:1,2010-03-21T17:10:00Z,30.4367,-88.0117,0.5,12.81,2 
DISL,ioos:station:DISL:MBLA:1,2010-03-21T17:13:00Z,30.4367,-88.0117,0.5,12.82,2 
DISL,ioos:station:DISL:MBLA:1,2010-03-21T17:16:00Z,30.4367,-88.0117,0.5,12.83,2 
DISL,ioos:station:DISL:MBLA:1,2010-03-21T18:03:00Z,30.4367,-88.0117,0.5,12.84,2 
DISL,ioos:station:DISL:MBLA:1,2010-03-21T18:05:00Z,30.4367,-88.0117,0.5,12.84,2 
DISL,ioos:station:DISL:MBLA:1,2010-03-21T18:08:00Z,30.4367,-88.0117,0.5,12.83,2 
DISL,ioos:station:DISL:MBLA:1,2010-03-21T18:10:00Z,30.4367,-88.0117,0.5,12.84,2 